Location: Boiro
(42.6475°N, 8.8834°W)
Time: 18:33:36
(UTC+01:00)

Transit 2A - Pass Details

Date: 01 December 2021
Orbit: 591 x 967 km, 66.7° (Epoch: 20 January)

Event Time Altitude Azimuth Distance (km) Brightness Sun altitude
Rises 01:17:05 0° 177° (S) 3,220 - -69.1°
Reaches altitude 10° 01:19:38 10° 166° (SSE) 2,361 - -69.1°
Maximum altitude 01:24:18 29° 107° (ESE) 1,504 - -69.2°
Drops below altitude 10° 01:29:21 10° 50° (NE) 2,582 - -69.1°
Sets 01:32:16 0° 40° (NE) 3,575 - -69.1°
